Location: Newark
(51.2000°N, 58.6167°E)
Time: 08:34:26
(UTC+00:00)

Envisat - Pass Details

Date: 07 October 2020
Orbit: 764 x 766 km, 98.1° (Epoch: 23 October)

Event Time Altitude Azimuth Distance (km) Brightness Sun altitude
Rises 13:59:40 0° 193° (SSW) 3,221 6.4 -5.5°
Reaches altitude 10° 14:02:12 10° 203° (SSW) 2,299 5.8 -5.9°
Maximum altitude 14:06:42 32° 266° (W) 1,309 5.2 -6.6°
Drops below altitude 10° 14:11:14 10° 329° (NNW) 2,314 5.9 -7.4°
Sets 14:13:48 0° 339° (NNW) 3,245 6.5 -7.8°
